CT1OY Oeiras PT current weather conditions

sailwx.info

Wind from 305

Air temperature 16.7° C
Dewpoint 12.4° C

Last reported at 2015-Apr-27 11:49 UTC.
Time now 2015-Apr-27 12:15 UTC

Location: N 38°44' W 009°17'.
View on Google Maps.

See reports from other nearby stations

  
Tides and Currents Weather Stations Pressure Air Temp Water Temp Dewpoint Dewpoint Depression Visibility Wind Speed Wind Dir Waves Ship Positions
date/time (UTC)wind fromknots sea level pressurealtimeterstation pressurevisibilityair tempwater tempwave heightnotes
2015-Apr-27 11:49 305 16.7
2015-Apr-27 11:39 288 16.7
2015-Apr-27 11:29 297 16.1
2015-Apr-27 11:19 285 15.0
2015-Apr-27 11:09 315 1 15.0
2015-Apr-27 10:59 285 15.6
2015-Apr-27 10:49 289 16.1
2015-Apr-27 10:39 285 16.1
2015-Apr-27 10:29 293 16.1
2015-Apr-27 10:19 285 2 16.1
2015-Apr-27 10:09 301 16.1
2015-Apr-27 09:49 317 16.1
2015-Apr-27 09:29 239 16.7
2015-Apr-27 09:19 315 16.7
2015-Apr-27 09:09 312 16.1
2015-Apr-27 08:59 004 16.1
2015-Apr-27 08:29 307 0 15.0
2015-Apr-27 08:09 284 1 14.4
2015-Apr-27 07:59 347 2 13.9
2015-Apr-27 07:49 297 4 14.4
2015-Apr-27 07:39 264 0 14.4
2015-Apr-27 07:29 287 2 14.4
2015-Apr-27 07:19 035 14.4
2015-Apr-27 06:59 344 1 13.3
2015-Apr-27 06:49 273 12.8
2015-Apr-27 06:39 273 12.8
2015-Apr-27 06:09 273 12.8
2015-Apr-27 05:59 273 12.8
2015-Apr-27 05:49 273 12.8
2015-Apr-27 05:29 273 12.8
2015-Apr-27 05:09 273 12.8
2015-Apr-27 04:59 273 12.8
2015-Apr-27 04:49 273 12.8
2015-Apr-27 04:39 273 12.8
2015-Apr-27 04:29 273 12.8
2015-Apr-27 04:19 273 12.8
2015-Apr-27 04:09 273 12.8
2015-Apr-27 03:59 273 12.8
2015-Apr-27 03:49 273 12.8
2015-Apr-27 03:39 273 12.8
2015-Apr-27 03:29 273 12.8
2015-Apr-27 03:19 273 12.8
2015-Apr-27 03:09 273 12.8
2015-Apr-27 02:59 273 12.8
2015-Apr-27 02:49 273 12.8
2015-Apr-27 02:39 273 12.8
2015-Apr-27 02:19 273 12.8
2015-Apr-27 02:09 273 12.8
2015-Apr-27 01:59 273 12.8
2015-Apr-27 01:29 273 12.8
2015-Apr-27 01:19 273 12.8
2015-Apr-27 01:09 273 12.8
2015-Apr-27 00:59 278 13.3
2015-Apr-27 00:49 271 13.3
2015-Apr-27 00:29 269 13.3
2015-Apr-27 00:19 278 13.3
2015-Apr-27 00:09 300 13.3
2015-Apr-26 23:49 269 13.3
2015-Apr-26 23:19 285 13.3
2015-Apr-26 23:09 255 13.3
2015-Apr-26 22:59 269 13.3
2015-Apr-26 22:49 271 13.3
2015-Apr-26 22:39 297 13.3
2015-Apr-26 22:29 273 13.3
2015-Apr-26 22:19 277 13.9
2015-Apr-26 22:09 301 13.9
2015-Apr-26 21:59 248 13.9
2015-Apr-26 21:49 274 13.9
2015-Apr-26 21:39 229 13.9
2015-Apr-26 21:19 274 13.9
2015-Apr-26 21:09 248 13.9
2015-Apr-26 20:59 279 13.9
2015-Apr-26 20:29 270 13.9
2015-Apr-26 20:09 293 13.9
2015-Apr-26 19:59 266 13.9
2015-Apr-26 19:49 255 13.9
2015-Apr-26 19:39 269 13.9
2015-Apr-26 19:29 293 14.4
2015-Apr-26 19:19 269 14.4
2015-Apr-26 19:09 266 14.4
2015-Apr-26 18:49 243 15.0
2015-Apr-26 18:39 272 15.0
2015-Apr-26 18:09 285 0 15.0
2015-Apr-26 17:59 229 2 gusting 11 15.0
2015-Apr-26 17:49 264 0 gusting 10 15.0
2015-Apr-26 17:39 263 15.6
2015-Apr-26 17:29 284 1 15.6
2015-Apr-26 17:19 273 15.6
2015-Apr-26 16:59 297 15.6
2015-Apr-26 16:29 288 0 gusting 12 15.6
2015-Apr-26 16:19 283 15.6
2015-Apr-26 15:59 263 1 gusting 11 15.6
2015-Apr-26 15:49 264 15.0
2015-Apr-26 15:29 271 0 gusting 13 16.1
2015-Apr-26 14:59 297 16.7
2015-Apr-26 14:49 274 6 gusting 13 16.7
2015-Apr-26 14:39 295 3 gusting 13 16.7
2015-Apr-26 14:29 232 10 gusting 13 16.7
2015-Apr-26 14:09 279 6 gusting 13 16.7
2015-Apr-26 13:59 245 4 gusting 13 16.1
2015-Apr-26 13:19 260 15.6
2015-Apr-26 12:59 264 4 14.4
2015-Apr-26 12:49 281 14.4
2015-Apr-26 12:29 270 0 14.4
2015-Apr-26 12:19 245 5 14.4
2015-Apr-26 12:09 233 14.4
2015-Apr-26 11:59 274 15.0
2015-Apr-26 11:19 276 4 gusting 12 15.6
2015-Apr-26 11:09 288 16.1
2015-Apr-26 10:59 278 13 gusting 13 16.1
2015-Apr-26 10:39 249 1 15.6
2015-Apr-26 10:19 288 2 gusting 11 15.0
2015-Apr-26 09:59 300 14.4
2015-Apr-26 09:49 300 3 gusting 11 14.4
2015-Apr-26 09:39 259 2 gusting 11 14.4
2015-Apr-26 09:29 263 2 15.0
2015-Apr-26 09:19 302 1 14.4
2015-Apr-26 09:09 279 1 14.4
2015-Apr-26 08:59 263 6 13.9
2015-Apr-26 08:49 283 4 13.9
2015-Apr-26 08:19 262 2 gusting 11 13.9
2015-Apr-26 08:09 259 3 13.9
2015-Apr-26 07:49 314 1 13.9
2015-Apr-26 07:39 281 2 13.9
2015-Apr-26 07:19 266 1 13.9
2015-Apr-26 06:59 243 1 13.3
2015-Apr-26 06:39 257 12.8
2015-Apr-26 06:29 158 6 14.4
2015-Apr-26 06:19 158 6 14.4
2015-Apr-26 06:09 158 6 14.4
2015-Apr-26 05:49 158 6 14.4
2015-Apr-26 05:29 158 6 14.4
2015-Apr-26 05:19 158 6 14.4
2015-Apr-26 05:09 158 6 14.4
2015-Apr-26 04:59 158 6 14.4
2015-Apr-26 04:09 158 6 14.4
2015-Apr-26 03:59 158 6 14.4
2015-Apr-26 03:49 158 6 14.4
2015-Apr-26 03:39 158 6 14.4
2015-Apr-26 03:29 158 6 14.4
2015-Apr-26 03:19 158 6 14.4
2015-Apr-26 03:09 158 6 14.4
2015-Apr-26 02:49 158 6 14.4
2015-Apr-26 02:39 158 6 14.4
2015-Apr-26 02:29 158 6 14.4
2015-Apr-26 02:19 158 6 14.4
2015-Apr-26 02:09 158 6 14.4
2015-Apr-26 01:49 158 6 14.4
2015-Apr-26 01:39 158 6 14.4
2015-Apr-26 01:09 158 6 14.4
2015-Apr-26 00:49 158 6 14.4
2015-Apr-26 00:29 158 6 14.4
2015-Apr-25 23:59 158 6 14.4
2015-Apr-25 23:49 158 6 14.4
2015-Apr-25 23:39 158 6 14.4
2015-Apr-25 23:29 158 6 14.4
2015-Apr-25 23:09 158 6 14.4
2015-Apr-25 22:59 158 6 14.4
2015-Apr-25 22:29 158 6 14.4
2015-Apr-25 22:19 158 6 14.4
2015-Apr-25 21:49 158 6 14.4
2015-Apr-25 20:59 158 6 14.4
2015-Apr-25 20:49 158 6 14.4
2015-Apr-25 20:19 158 6 14.4
2015-Apr-25 20:09 158 6 14.4
2015-Apr-25 19:49 158 6 14.4
2015-Apr-25 19:19 158 6 14.4
2015-Apr-25 18:29 112 9 gusting 12 15.6
2015-Apr-25 18:19 167 11 15.6
2015-Apr-25 18:09 112 11 gusting 11 15.6
2015-Apr-25 17:49 188 2 gusting 12 15.6
2015-Apr-25 17:39 114 2 15.6
2015-Apr-25 17:29 121 6 16.1
2015-Apr-25 17:19 138 5 16.1
2015-Apr-25 17:09 165 4 gusting 12 16.1
2015-Apr-25 16:59 251 4 gusting 11 16.1
2015-Apr-25 16:49 158 3 16.1
2015-Apr-25 16:29 139 4 gusting 11 16.1
2015-Apr-25 16:09 122 3 gusting 11 16.7
2015-Apr-25 15:59 127 2 gusting 10 16.7
2015-Apr-25 15:49 137 2 gusting 13 16.7
2015-Apr-25 15:39 148 6 gusting 13 16.7
2015-Apr-25 15:29 104 3 gusting 11 16.7
2015-Apr-25 14:49 265 17.2
2015-Apr-25 14:39 120 1 17.2
2015-Apr-25 14:29 188 6 16.7
2015-Apr-25 14:19 169 5 gusting 13 16.7
2015-Apr-25 14:09 124 16.7
2015-Apr-25 13:59 110 5 gusting 10 17.2
2015-Apr-25 13:49 191 1 gusting 13 17.2
2015-Apr-25 13:39 104 1 gusting 11 17.2
2015-Apr-25 13:29 128 6 gusting 10 17.2
2015-Apr-25 13:19 176 16.7
2015-Apr-25 13:09 139 5 gusting 13 16.7
2015-Apr-25 12:59 266 16.7
2015-Apr-25 12:49 094 1 gusting 13 17.2
2015-Apr-25 12:39 121 1 17.2
2015-Apr-25 12:29 317 17.2
2015-Apr-25 12:09 229 1 17.2